Weather History for Clinton-Sherman, OK

Change the Weather History Date:

Thursday, June 27, 2013

  Actual Average Record
Temperature  
Mean Temperature 90 °F -  
Max Temperature 107 °F 88 °F 107 °F (2012)
Min Temperature 75 °F 67 °F 57 °F (2003)
Cooling Degree Days 26    
Growing Degree Days 40 (Base 50)    
Moisture  
Dew Point 62 °F    
Average Humidity 45    
Maximum Humidity 76    
Minimum Humidity 17    
Precipitation  
Precipitation 0.00 in - - ()
Sea Level Pressure  
Sea Level Pressure 29.92 in    
Wind  
Wind Speed 12 mph (SSE)    
Max Wind Speed 29 mph    
Max Gust Speed 43 mph    
Visibility 10 miles    
Events Thunderstorm    
Averages and records for this station are not official NWS values.
T = Trace of Precipitation, MM = Missing Value Source: NWS Daily Summary

Daily Weather History Graph

Daily Weather History Graph

Search for Another Location

Airport:

Trip Planner

Search our weather history database for the weather conditions in past years. The results will help you decide how hot, cold, wet, or windy it might be!

Date:

Astronomy

Jun. 27, 2013 Rise Set
Actual Time 6:24 AM CDT 8:55 PM CDT
Civil Twilight 5:54 AM CDT 9:25 PM CDT
Nautical Twilight 5:17 AM CDT 10:02 PM CDT
Astronomical Twilight 4:36 AM CDT 10:43 PM CDT
Moon No Moon Rise 11:15 AM CDT (6/27)
Length of Visible Light 15h 31m
Length of Day
14h 31m
Waning Gibbous, 76% of the Moon is Illuminated
Jun 27
Waning Gibbous
Jun 29
Last Quarter
Jul 8
New
Jul 15
First Quarter
Jul 22
Full

Hourly Weather History & Observations

Time (CDT) Temp. Heat Index Dew Point Humidity Pressure Visibility Wind Dir Wind Speed Gust Speed Precip Events Conditions
12:53 AM 82.0 °F 84.9 °F 68.0 °F 62% 29.86 in 10.0 mi SE 9.2 mph - N/A   Clear
1:53 AM 80.1 °F 82.9 °F 69.1 °F 69% 29.87 in 10.0 mi SE 6.9 mph - N/A   Clear
2:53 AM 79.0 °F - 69.1 °F 72% 29.87 in 10.0 mi SE 9.2 mph - N/A   Clear
3:53 AM 78.1 °F - 68.0 °F 71% 29.87 in 10.0 mi SE 9.2 mph - N/A   Clear
4:53 AM 75.9 °F - 68.0 °F 76% 29.87 in 10.0 mi SSE 8.1 mph - N/A   Clear
5:53 AM 75.9 °F - 66.9 °F 74% 29.88 in 10.0 mi South 10.4 mph - N/A   Clear
6:53 AM 77.0 °F - 66.9 °F 71% 29.90 in 10.0 mi South 10.4 mph - N/A   Clear
7:53 AM 82.0 °F 84.1 °F 66.0 °F 58% 29.91 in 10.0 mi South 15.0 mph - N/A   Clear
8:53 AM 84.9 °F 86.6 °F 64.9 °F 51% 29.91 in 10.0 mi South 17.3 mph - N/A   Clear
9:53 AM 91.0 °F 93.0 °F 64.9 °F 42% 29.91 in 10.0 mi SSW 19.6 mph - N/A   Clear
10:53 AM 95.0 °F 97.4 °F 64.9 °F 37% 29.91 in 10.0 mi SSW 13.8 mph - N/A   Clear
11:53 AM 99.0 °F 102.3 °F 64.9 °F 33% 29.91 in 10.0 mi SSW 10.4 mph - N/A   Clear
12:53 PM 102.0 °F 103.9 °F 62.1 °F 27% 29.90 in 10.0 mi South 12.7 mph 17.3 mph N/A   Clear
1:53 PM 102.9 °F 103.0 °F 57.9 °F 23% 29.89 in 10.0 mi South 11.5 mph 17.3 mph N/A   Clear
2:53 PM 104.0 °F 103.4 °F 57.0 °F 21% 29.88 in 10.0 mi SSW 9.2 mph 21.9 mph N/A   Clear
3:53 PM 106.0 °F 105.1 °F 55.0 °F 19% 29.86 in 10.0 mi SSW 16.1 mph 20.7 mph N/A   Clear
4:53 PM 105.1 °F - 52.0 °F 17% 29.85 in 10.0 mi South 9.2 mph - N/A   Clear
5:53 PM 106.0 °F - 52.0 °F 17% 29.81 in 10.0 mi SSW 13.8 mph - N/A   Clear
6:53 PM 105.1 °F - 52.0 °F 17% 29.82 in 10.0 mi SSW 13.8 mph - N/A   Clear
7:53 PM 100.9 °F - 52.0 °F 19% 29.83 in 10.0 mi South 10.4 mph - N/A   Clear
8:53 PM 93.9 °F 91.7 °F 54.0 °F 26% 29.88 in 10.0 mi Calm Calm - N/A   Clear
9:38 PM 89.6 °F 87.7 °F 55.4 °F 31% 30.08 in 10.0 mi North 23.0 mph 31.1 mph N/A   Mostly Cloudy
9:53 PM 84.9 °F 84.8 °F 60.1 °F 43% 30.02 in 10.0 mi NNE 28.8 mph 42.6 mph N/A   Mostly Cloudy
10:13 PM 80.6 °F 82.3 °F 64.4 °F 58% 30.13 in 10.0 mi NNE 23.0 mph 38.0 mph N/A Thunderstorm Mostly Cloudy
10:34 PM 78.8 °F - 62.6 °F 57% 30.13 in 10.0 mi NE 23.0 mph 29.9 mph N/A   Mostly Cloudy
10:53 PM 78.1 °F - 63.0 °F 60% 30.05 in 10.0 mi NE 17.3 mph - N/A   Mostly Cloudy
11:53 PM 79.0 °F - 61.0 °F 54% 29.96 in 10.0 mi East 11.5 mph - N/A   Clear